TimeEDT,TemperatureF,Dew PointF,Humidity,Sea Level PressureIn,VisibilityMPH,Wind Direction,Wind SpeedMPH,Gust SpeedMPH,PrecipitationIn,Events,Conditions,WindDirDegrees,DateUTC
12:53 AM,55.0,46.0,72,29.98,10.0,Calm,Calm,-,N/A,,Clear,0,2013-09-26 04:53:00
1:53 AM,54.0,46.0,75,29.98,10.0,Calm,Calm,-,N/A,,Clear,0,2013-09-26 05:53:00
2:53 AM,52.0,46.0,80,29.98,10.0,NW,3.5,-,N/A,,Clear,320,2013-09-26 06:53:00
3:53 AM,54.0,46.0,75,29.98,10.0,Calm,Calm,-,N/A,,Clear,0,2013-09-26 07:53:00
4:53 AM,50.0,46.0,86,29.98,10.0,NNW,4.6,-,N/A,,Clear,330,2013-09-26 08:53:00
5:53 AM,50.0,45.0,83,29.99,10.0,Calm,Calm,-,N/A,,Clear,0,2013-09-26 09:53:00
6:53 AM,48.0,45.0,89,30.01,10.0,NW,3.5,-,N/A,,Clear,310,2013-09-26 10:53:00
7:53 AM,50.0,46.0,86,30.03,10.0,Calm,Calm,-,N/A,,Clear,0,2013-09-26 11:53:00
8:53 AM,51.1,46.9,86,30.04,10.0,NW,3.5,-,N/A,,Clear,320,2013-09-26 12:53:00
9:53 AM,57.9,50.0,75,30.06,10.0,NW,4.6,-,N/A,,Clear,310,2013-09-26 13:53:00
10:53 AM,61.0,52.0,72,30.07,10.0,NW,3.5,-,N/A,,Clear,310,2013-09-26 14:53:00
11:53 AM,68.0,53.1,59,30.06,10.0,NW,5.8,-,N/A,,Clear,320,2013-09-26 15:53:00
12:53 PM,70.0,50.0,49,30.05,10.0,NW,4.6,-,N/A,,Clear,310,2013-09-26 16:53:00
1:53 PM,73.0,50.0,44,30.03,10.0,West,4.6,-,N/A,,Clear,270,2013-09-26 17:53:00
2:53 PM,73.9,48.0,40,30.03,10.0,Variable,4.6,-,N/A,,Clear,0,2013-09-26 18:53:00
3:53 PM,75.9,43.0,31,30.02,10.0,NW,6.9,-,N/A,,Clear,310,2013-09-26 19:53:00
4:53 PM,75.0,46.9,37,30.03,10.0,Calm,Calm,-,N/A,,Clear,0,2013-09-26 20:53:00
5:53 PM,73.9,44.1,34,30.04,10.0,Calm,Calm,-,N/A,,Clear,0,2013-09-26 21:53:00
6:53 PM,70.0,48.0,46,30.06,10.0,East,4.6,-,N/A,,Clear,100,2013-09-26 22:53:00
7:53 PM,66.9,46.9,49,30.08,10.0,ESE,3.5,-,N/A,,Clear,110,2013-09-26 23:53:00
8:53 PM,64.9,48.0,54,30.09,10.0,East,3.5,-,N/A,,Clear,100,2013-09-27 00:53:00
9:53 PM,62.1,48.0,60,30.10,10.0,NW,3.5,-,N/A,,Clear,320,2013-09-27 01:53:00
10:53 PM,61.0,48.9,64,30.11,10.0,Calm,Calm,-,N/A,,Clear,0,2013-09-27 02:53:00
11:53 PM,59.0,48.9,69,30.12,10.0,NNE,3.5,-,N/A,,Clear,20,2013-09-27 03:53:00